This is the latest recevied weather packets stored in our database for station/object G4WLC-1. If no packets are shown the sender has not sent any weather packets the latest 10 day(s).
| Time | Temp. | Humidity | Pressure | Rain* | Wind** | Luminosity | Snow |
|---|---|---|---|---|---|---|---|
| 1777548798 | 21.67° C | 42% | 1020.5 hPa | 0 mm | - | - | - |
| 1777548498 | 21.11° C | 45% | 1020.6 hPa | 0 mm | - | - | - |
| 1777548198 | 20.56° C | 44% | 1020.6 hPa | 0 mm | - | - | - |
| 1777547898 | 20.56° C | 45% | 1020.7 hPa | 0 mm | - | - | - |
| 1777547598 | 20.56° C | 43% | 1020.6 hPa | 0 mm | - | - | - |
| 1777547298 | 20.56° C | 47% | 1020.6 hPa | 0 mm | - | - | - |
| 1777546998 | 20.56° C | 48% | 1020.5 hPa | 0 mm | - | - | - |
| 1777546698 | 20.56° C | 47% | 1020.6 hPa | 0 mm | - | - | - |
| 1777546398 | 20° C | 46% | 1020.5 hPa | 0 mm | - | - | - |
| 1777546098 | 20° C | 50% | 1020.9 hPa | 0 mm | - | - | - |
| 1777545798 | 19.44° C | 50% | 1020.7 hPa | 0 mm | - | - | - |
| 1777545498 | 19.44° C | 49% | 1020.8 hPa | 0 mm | - | - | - |
| 1777545198 | 18.89° C | 50% | 1020.8 hPa | 0 mm | - | - | - |
| 1777544898 | 18.89° C | 52% | 1020.8 hPa | 0 mm | - | - | - |
| 1777544598 | 18.89° C | 57% | 1020.7 hPa | 0 mm | - | - | - |
| 1777544298 | 18.33° C | 55% | 1020.7 hPa | 0 mm | - | - | - |
| 1777543998 | 17.78° C | 52% | 1020.8 hPa | 0 mm | - | - | - |
| 1777543698 | 17.78° C | 53% | 1020.8 hPa | 0 mm | - | - | - |
| 1777543398 | 17.78° C | 55% | 1020.8 hPa | 0 mm | - | - | - |
| 1777543098 | 17.78° C | 56% | 1020.8 hPa | 0 mm | - | - | - |
| 1777542798 | 17.78° C | 56% | 1020.8 hPa | 0 mm | - | - | - |
| 1777542498 | 17.22° C | 58% | 1020.7 hPa | 0 mm | - | - | - |
| 1777542198 | 16.67° C | 59% | 1020.7 hPa | 0 mm | - | - | - |
| 1777541898 | 16.67° C | 58% | 1020.9 hPa | 0 mm | - | - | - |
| 1777541598 | 16.11° C | 58% | 1020.9 hPa | 0 mm | - | - | - |
* Rain latest hour (hover to see other rain measurements)
** Current wind speed in m/s (hover to see current wind gust speed)